Погода в Московском

Россия / Ставропольский край     45°17′05″N   41°55′07″E
темп.,
°C
ветер,
м/с
пор.,
м/с
влажн.,
%
обл.,
%
осадки,
мм/ч
давл.,
гПа
погр.,
м
16 мая, вс
вс1600:00+19св229158 0.1 101117
03:00+18в118860 0.2 101011
06:00+17юв227498 0.0 100943
09:00+22вюв226583 0.0 1009388
12:00+25вюв565776 0.0 1008675
15:00+26вюв795743 0.0 10061075
18:00+24вюв5116324 0.0 1005322
21:00+20вюв8164598 0.0 1005400
17 мая, пн
пн1700:00+17вюв8164935 0.0 1004320
03:00+15юв6125475 0.0 1004208
06:00+15юв3468100 0.0 100570
09:00+21з22631 0.0 1006492
12:00+23сз546398 0.0 1007923
15:00+23сз5562100 0.0 10071187
18:00+21сз4878100 0.0 1007368
21:00+17зсз3895100 2.3 1008235
18 мая, вт
вт1800:00+16з71296100 2.9 1008629
03:00+13з8149793 9.1 1009565
06:00+14з51297100 0.1 1010538
09:00+15зюз689391 0.3 1011553
12:00+18зсз577668 0.1 1010832
15:00+21зсз576378 0.1 10101551
18:00+19сз35745 0.1 1011600
21:00+15юз22871 0.1 101212
19 мая, ср
ср1900:00+14юз228826 0.0 101112
03:00+14ю2287100 0.0 101111
06:00+14з4792100 0.3 1013288
09:00+13зсз31097100 6.7 1014743
12:00+14з588892 7.0 1015694
15:00+19з610623 7.6 10151825
18:00+17з510741 0.0 10161219
21:00+12юз33850 0.0 101839
20 мая, чт
чт2000:00+10юз22850 0.0 101925
03:00+10ююз33850 0.0 101931
06:00+11ю23830 0.0 102066
09:00+17ююв56695 0.0 1018692
12:00+20юв4559100 0.0 10171195
15:00+22вюв445135 0.0 10171347
18:00+20вюв48695 0.0 1017277
21:00+15вюв412770 0.0 1016214